sat.trackr.live / text

‹ back to catalog

STARLINK-5025

NORAD 53920 · 2022-119AL

PAYLOAD ACTIVE UNKNOWN

§ Identity

Operator
Country
US
Launch date
2022-09-24
Launch site
AFETR
Launch vehicle
Mass (kg)
RCS (m²)

Purposes: comms

External: N2YO · Heavens-Above · Gunter

§ Orbital elements

Epoch: 2026-05-24T19:09:37.507392Z

Period
95.44 min
Inclination
53.2154°
Eccentricity
0.0001098
Mean motion
15.08840940 rev/d
Perigee alt
539.0 km
Apogee alt
540.5 km
Semi-major
6,917.9 km
B*
-6.7767e-6
RAAN
332.5214°
Arg perigee
107.1408°
Mean anomaly
252.9705°
Rev number
20,331

§ Raw data

STARLINK-50251 53920U 22119AL  26144.79835078 -.00000396  00000+0 -67767-5 0  99952 53920  53.2154 332.5214 0001098 107.1408 252.9705 15.08840940203318

JSON: /api/v1/satellites/53920 · /tle

For live sub-satellite position, see the globe view (requires WebGL).

§ Visibility from observer

Set your observer location to see the next 7 days of passes ≥ 10°. The values pass through the URL so the page stays shareable.

No JS? Fill the form by hand. The geolocation button needs JavaScript.